Weather History for St. Francis, KS

Change the Weather History Date:

Sunday, March 10, 2013

  Actual Average Record
Temperature  
Mean Temperature 24 °F -  
Max Temperature 31 °F 55 °F 75 °F (2014)
Min Temperature 16 °F 26 °F 16 °F (2013)
Degree Days  
Heating Degree Days 42    
Moisture  
Dew Point 17 °F    
Average Humidity 68    
Maximum Humidity 86    
Minimum Humidity 52    
Precipitation  
Precipitation 0.00 in - - ()
Sea Level Pressure  
Sea Level Pressure 30.05 in    
Wind  
Wind Speed 19 mph (NNW)    
Max Wind Speed 30 mph    
Max Gust Speed 37 mph    
Visibility 10 miles    
Events      
Averages and records for this station are not official NWS values.
T = Trace of Precipitation, MM = Missing Value Source: NWS Daily Summary

Daily Weather History Graph

Daily Weather History Graph

Search for Another Location

Airport:

Trip Planner

Search our weather history database for the weather conditions in past years. The results will help you decide how hot, cold, wet, or windy it might be!

Date:

Astronomy

Mar. 10, 2013 Rise Set
Actual Time 8:06 AM CDT 7:49 PM CDT
Civil Twilight 7:39 AM CDT 8:16 PM CDT
Nautical Twilight 7:07 AM CDT 8:47 PM CDT
Astronomical Twilight 6:36 AM CDT 9:18 PM CDT
Moon 7:07 AM CDT (3/10) 6:59 PM CDT (3/10)
Length of Visible Light 12h 36m
Length of Day
11h 43m
Waning Crescent, 2% of the Moon is Illuminated
Mar 10
Waning Crescent
Mar 11
New
Mar 19
First Quarter
Mar 27
Full
Apr 2
Last Quarter

Hourly Weather History & Observations

Time (CDT) Temp. Windchill Dew Point Humidity Pressure Visibility Wind Dir Wind Speed Gust Speed Precip Events Conditions
12:15 AM 31.5 °F 18.2 °F 27.7 °F 86% 29.93 in 7.0 mi North 24.2 mph 35.7 mph N/A   Overcast
12:35 AM 31.1 °F 18.3 °F 26.1 °F 82% 29.94 in 10.0 mi North 21.9 mph 34.5 mph N/A   Overcast
12:55 AM 30.6 °F 19.4 °F 25.7 °F 82% 29.94 in 10.0 mi North 16.1 mph 27.6 mph N/A   Overcast
1:15 AM 30.4 °F 17.7 °F 24.6 °F 79% 29.95 in 10.0 mi North 20.7 mph 32.2 mph N/A   Mostly Cloudy
1:35 AM 29.7 °F 16.7 °F 23.0 °F 76% 29.96 in 10.0 mi North 20.7 mph 29.9 mph N/A   Mostly Cloudy
1:55 AM 29.1 °F 15.4 °F 22.1 °F 75% 29.97 in 10.0 mi North 23.0 mph 28.8 mph N/A   Overcast
3:15 AM 28.4 °F 13.8 °F 21.2 °F 74% 29.98 in 10.0 mi North 25.3 mph 32.2 mph N/A   Mostly Cloudy
3:35 AM 28.4 °F 14.4 °F 20.5 °F 72% 29.99 in 5.0 mi North 23.0 mph 35.7 mph N/A   Haze
3:55 AM 28.2 °F 12.5 °F 20.1 °F 72% 29.99 in 7.0 mi North 29.9 mph 36.8 mph N/A   Overcast
4:15 AM 27.5 °F 12.9 °F 19.4 °F 72% 29.99 in 10.0 mi North 24.2 mph 33.4 mph N/A   Overcast
4:35 AM 26.4 °F 12.5 °F 18.3 °F 71% 30.00 in 10.0 mi North 20.7 mph 28.8 mph N/A   Scattered Clouds
4:55 AM 25.7 °F 13.5 °F 17.6 °F 71% 30.01 in 10.0 mi NNW 15.0 mph - N/A   Clear
5:15 AM 24.8 °F 11.9 °F 17.6 °F 74% 30.02 in 10.0 mi NNW 16.1 mph 23.0 mph N/A   Scattered Clouds
5:35 AM 24.6 °F 11.3 °F 17.4 °F 74% 30.03 in 10.0 mi NNW 17.3 mph 21.9 mph N/A   Scattered Clouds
5:55 AM 24.1 °F 11.0 °F 17.4 °F 76% 30.03 in 10.0 mi NNW 16.1 mph 24.2 mph N/A   Clear
6:15 AM 23.7 °F 10.1 °F 17.2 °F 76% 30.04 in 10.0 mi NNW 17.3 mph - N/A   Clear
6:55 AM 23.5 °F 11.8 °F 17.1 °F 76% 30.05 in 10.0 mi NNW 12.7 mph - N/A   Clear
7:35 AM 22.8 °F 9.9 °F 16.5 °F 77% 30.05 in 10.0 mi NNW 15.0 mph - N/A   Scattered Clouds
7:55 AM 23.0 °F 9.6 °F 16.7 °F 77% 30.04 in 10.0 mi NNW 16.1 mph - N/A   Scattered Clouds
8:15 AM 23.2 °F 10.3 °F 16.7 °F 76% 30.05 in 10.0 mi NNW 15.0 mph - N/A   Clear
8:35 AM 23.4 °F 9.6 °F 17.2 °F 77% 30.05 in 10.0 mi NNW 17.3 mph 24.2 mph N/A   Clear
8:55 AM 23.9 °F 9.1 °F 16.3 °F 73% 30.05 in 10.0 mi NNW 20.7 mph 28.8 mph N/A   Clear
9:15 AM 24.6 °F 10.1 °F 15.8 °F 69% 30.06 in 10.0 mi NNW 20.7 mph 26.5 mph N/A   Clear
9:35 AM 24.8 °F 10.3 °F 15.6 °F 68% 30.06 in 10.0 mi NNW 20.7 mph 27.6 mph N/A   Clear
9:55 AM 25.2 °F 10.4 °F 15.6 °F 67% 30.07 in 10.0 mi North 21.9 mph 25.3 mph N/A   Clear
10:15 AM 25.5 °F 10.9 °F 15.6 °F 66% 30.08 in 10.0 mi North 21.9 mph 31.1 mph N/A   Clear
10:35 AM 25.5 °F 11.3 °F 15.6 °F 66% 30.08 in 10.0 mi North 20.7 mph 27.6 mph N/A   Clear
10:55 AM 26.2 °F 11.2 °F 16.2 °F 66% 30.08 in 10.0 mi North 24.2 mph 31.1 mph N/A   Clear
11:15 AM 27.0 °F 11.6 °F 16.3 °F 64% 30.09 in 10.0 mi North 26.5 mph 32.2 mph N/A   Clear
11:35 AM 27.5 °F 12.9 °F 17.2 °F 65% 30.10 in 10.0 mi North 24.2 mph 32.2 mph N/A   Clear
11:55 AM 28.2 °F 14.8 °F 17.4 °F 64% 30.10 in 10.0 mi North 20.7 mph 25.3 mph N/A   Clear
12:15 PM 28.0 °F 14.3 °F 16.2 °F 61% 30.10 in 10.0 mi North 21.9 mph 31.1 mph N/A   Clear
12:35 PM 28.2 °F 13.9 °F 16.5 °F 62% 30.10 in 10.0 mi North 24.2 mph 31.1 mph N/A   Clear
12:55 PM 28.4 °F 13.5 °F 17.4 °F 63% 30.10 in 10.0 mi North 26.5 mph 31.1 mph N/A   Clear
1:15 PM 28.9 °F 14.5 °F 16.7 °F 60% 30.10 in 10.0 mi North 25.3 mph 31.1 mph N/A   Clear
1:35 PM 29.3 °F 15.3 °F 16.2 °F 58% 30.12 in 10.0 mi North 24.2 mph 33.4 mph N/A   Scattered Clouds
1:55 PM 29.3 °F 16.6 °F 16.5 °F 59% 30.12 in 10.0 mi North 19.6 mph 28.8 mph N/A   Clear
2:15 PM 29.8 °F 17.3 °F 17.1 °F 59% 30.10 in - North 19.6 mph 29.9 mph N/A   Unknown
2:35 PM 30.2 °F 18.1 °F 17.1 °F 58% 30.10 in 10.0 mi North 18.4 mph 28.8 mph N/A   Clear
2:55 PM 30.2 °F 16.8 °F 16.0 °F 56% 30.09 in 10.0 mi North 23.0 mph 31.1 mph N/A   Clear
3:15 PM 30.7 °F 18.1 °F 17.1 °F 57% 30.09 in 10.0 mi North 20.7 mph 28.8 mph N/A   Clear
3:35 PM 30.9 °F 19.4 °F 17.6 °F 58% 30.09 in 10.0 mi North 17.3 mph 27.6 mph N/A   Scattered Clouds
3:55 PM 31.1 °F 19.3 °F 17.6 °F 57% 30.08 in 10.0 mi North 18.4 mph 28.8 mph N/A   Clear
4:15 PM 31.5 °F 20.5 °F 18.1 °F 58% 30.08 in 10.0 mi North 16.1 mph - N/A   Clear
4:35 PM 31.1 °F 18.3 °F 17.6 °F 57% 30.08 in 10.0 mi North 21.9 mph 27.6 mph N/A   Clear
4:55 PM 31.5 °F 20.5 °F 17.8 °F 57% 30.08 in 10.0 mi North 16.1 mph 23.0 mph N/A   Clear
5:15 PM 31.5 °F 20.5 °F 17.4 °F 56% 30.07 in 10.0 mi North 16.1 mph - N/A   Clear
5:35 PM 31.1 °F 20.5 °F 16.5 °F 55% 30.07 in 10.0 mi North 15.0 mph 21.9 mph N/A   Clear
5:55 PM 31.1 °F 20.1 °F 15.4 °F 52% 30.06 in 10.0 mi North 16.1 mph 20.7 mph N/A   Clear
6:15 PM 30.6 °F 19.0 °F 16.2 °F 55% 30.05 in 10.0 mi North 17.3 mph 21.9 mph N/A   Clear
6:35 PM 30.2 °F 20.2 °F 16.7 °F 57% 30.05 in 10.0 mi North 12.7 mph - N/A   Clear
6:55 PM 29.7 °F 18.6 °F 15.3 °F 55% 30.06 in 10.0 mi North 15.0 mph - N/A   Clear
7:15 PM 28.8 °F 18.4 °F 15.3 °F 57% 30.06 in 10.0 mi North 12.7 mph 18.4 mph N/A   Clear
7:35 PM 27.3 °F 17.7 °F 16.0 °F 62% 30.05 in 10.0 mi North 10.4 mph - N/A   Clear
7:55 PM 26.6 °F 16.2 °F 16.0 °F 64% 30.05 in 10.0 mi North 11.5 mph - N/A   Clear
8:15 PM 25.5 °F 16.2 °F 15.4 °F 66% 30.05 in 10.0 mi North 9.2 mph - N/A   Clear
8:35 PM 23.9 °F 15.0 °F 14.9 °F 69% 30.05 in 10.0 mi NNW 8.1 mph - N/A   Clear
8:55 PM 23.0 °F 13.9 °F 14.7 °F 71% 30.05 in 10.0 mi NNW 8.1 mph - N/A   Clear
9:15 PM 22.6 °F 13.4 °F 14.2 °F 70% 30.05 in 10.0 mi NNW 8.1 mph - N/A   Clear
9:35 PM 21.7 °F 12.3 °F 13.6 °F 71% 30.05 in 10.0 mi NW 8.1 mph - N/A   Clear
9:55 PM 20.8 °F 13.2 °F 13.8 °F 74% 30.05 in 10.0 mi NW 5.8 mph - N/A   Clear
10:15 PM 20.7 °F 14.2 °F 13.1 °F 73% 30.05 in 10.0 mi NW 4.6 mph - N/A   Clear
10:55 PM 19.4 °F - 13.5 °F 78% 30.05 in 10.0 mi Calm Calm - N/A   Clear
11:15 PM 20.8 °F - 13.8 °F 74% 30.04 in 10.0 mi Calm Calm - N/A   Clear
11:35 PM 17.2 °F 7.8 °F 11.5 °F 78% 30.03 in 10.0 mi SW 6.9 mph - N/A   Clear
11:55 PM 16.0 °F 8.8 °F 11.3 °F 82% 30.03 in 10.0 mi West 4.6 mph - N/A   Clear
12:15 AM 17.1 °F - 11.8 °F 80% 30.02 in 10.0 mi Calm Calm - N/A   Clear
12:35 AM 16.2 °F 3.9 °F 10.4 °F 78% 30.03 in 10.0 mi SW 10.4 mph - N/A   Clear
12:55 AM 16.7 °F 4.5 °F 11.8 °F 81% 30.03 in 10.0 mi SW 10.4 mph - N/A   Clear